Airfield :
LOGIN :

Register | Disclaimer

   EN    FR    IT 

 










Legend :    VFR   Marginal VFR   IFR   Intensive IFR   Very Intensive IFR
Visi :
Ceiling :
>= 8 km
>= 3000ft
5 to 8 km
1000 to 3000 ft
1500m to 5 km
500 to 1000 ft
800 to 1500m
200 to 500 ft
< 800m
< 200 ft
Symbols :   Thunderstorms  Fog  Heavy snow  Heavy precipitations  Wind > 20 kt
SIGMETs :     Misc.  Thunderstorms  Icing  Turbulence  Mountain Waves  Volcanic Ashes







- Airport Elevation : 277 ft
- IATA code : JER
- Download approach charts


EGJJ - Jersey

CURRENT METAR :
  • 270220Z AUTO 30009KT 9999 NCD 11/11 Q1014

EXPIRED METARs :
  • 270150Z AUTO 30009KT 9999 NCD 12/12 Q1014
  • 270120Z AUTO 29009KT 9999 NCD 12/12 Q1015
  • 270050Z AUTO 29008KT 9999 FEW003/// SCT005/// 12/12 Q1015
  • 270020Z AUTO 29008KT 260V320 6000 HZ BKN002/// OVC003/// 12/12 Q1015

TAF TAF EGJJ
Valid from the 27 at 03:00 until the 27 at 12:00 UTC


270200Z 2703/2712 31010KT 9999 FEW008
ATIS : +44 1534 498 073
No reported NOTAMs for that airfield.



MET'MAP, your aeronautical weather chart ! - Copyright ORBIFLY December 2007 - Disclaimer

ORBIFLY MET'MAP TEAM :

Programming & Development : Alexandra Zaïnal
Concept & Development : Baudouin d'Aumeries
Co-Development & Prog : Marc-Olivier Méhu
Technical & hardware support : Manuel Goepfert

Contact : metmap@orbifly.com




SOURCES & CREDITS :

   NOAA